Tracking 29892 objects as of 21-Nov-2024
HD Live streaming from Space Station
objects crossing your sky now

STARLINK-1448

Track STARLINK-1448 now!
10-day predictions
STARLINK-1448 is classified as:


NORAD ID: 45665
Int'l Code: 2020-035J
Perigee: 553.1 km
Apogee: 555.2 km
Inclination: 53.1 °
Period: 95.6 minutes
Semi major axis: 6925 km
RCS: Unknown
Launch date: June 4, 2020
Source: United States (US)
Launch site: AIR FORCE EASTERN TEST RANGE (AFETR)
Your satellite tracking list
Your tracking list is empty




NASA's NSSDC Master Catalog

Two Line Element Set (TLE):
1 45665U 20035J   24325.57887706  .00026794  00000-0  18076-2 0  9992
2 45665  53.0534  34.9850 0001451  85.1858 274.9297 15.06466181247262
Source of the keplerian elements: AFSPC